Tracking 31027 objects as of 19-Jul-2025
HD Live streaming from Space Station
objects crossing your sky now

DMSP 5D-2 F14 DEB

Track DMSP 5D-2 F14 DEB now!
10-day predictions


NORAD ID: 62938
Int'l Code: 1997-012J
Perigee: 841.2 km
Apogee: 842.0 km
Inclination: 98.9 °
Period: 101.6 minutes
Semi major axis: 7212 km
RCS: Unknown
Launch date: April 4, 1997
Source: United States (US)
Launch site: AIR FORCE WESTERN TEST RANGE (AFWTR)

Note: This is SATELLITE DEBRIS
Your satellite tracking list
FLOCK 4Q 34
Track 1 satellite(s)




NASA's NSSDC Master Catalog

Two Line Element Set (TLE):
1 62938U 97012J   25199.60019561  .00001336  00000-0  68305-3 0  9999
2 62938  98.8670 248.7829 0000522  73.9414 286.1818 14.17315581 29815
Source of the keplerian elements: AFSPC